Weather in Serpeysk

Russia / Kaluga Oblast     54°20′10″N   34°59′27″E
temp.,
°C
wind,
m/s
gust,
m/s
humid.,
%
clouds,
%
prec.,
mm/h
press.,
hPa
HPBL,
m
21 january, fri
fri2100:00−3ssw61294100 0.8 1001606
03:00−3s51094100 0.9 1000695
06:00−3s51194100 0.1 998707
09:00−4ssw5993100 0.2 997446
12:00−5s5109112 0.0 997566
15:00−5s5109398 0.1 996649
18:00−6sse51295100 0.3 995530
21:00−5sse51196100 0.7 994443
22 january, sat
sat2200:00−4s4996100 0.5 995409
03:00−5ssw489599 0.8 997390
06:00−8ssw3796100 0.1 999186
09:00−10ssw259779 0.2 100297
12:00−8ssw239483 0.1 1004192
15:00−7s1293100 0.1 1006214
18:00−10se119881 0.2 100910
21:00−12se119981 0.3 10119
23 january, sun
sun2300:00−14e229987 0.1 101414
03:00−17ene22100100 0.1 101712
06:00−15ene239998 0.1 102039
09:00−18ne23100100 0.1 102434
12:00−11ene2497100 0.1 1026125
15:00−9ne239648 0.1 1028125
18:00−15nne2210089 0.0 103227
21:00−17ne22100100 0.0 103418
24 january, mon
mon2400:00−19ne22100100 0.0 103617
03:00−17nne34100100 0.0 103755
06:00−18nne35100100 0.0 103764
09:00−20ne23100100 0.1 103847
12:00−12ene349789 0.0 1038126
15:00−10nne359540 0.0 1036163
18:00−17nne2210077 0.0 103710
21:00−19ne22100100 0.0 103710
25 january, tue
tue2500:00−20nne12100100 0.0 10369
03:00−21nnw11100100 0.0 10359
06:00−21sw11100100 0.0 10339
09:00−20wsw22100100 0.0 103210
12:00−11sw23925 0.0 1029113
15:00−8sw25915 0.0 1026186
18:00−15ssw349863 0.0 102550
21:00−16sw3610088 0.0 102574